Flag for U.S.A. Weather past 2 weeks in Raleigh, North Carolina, U.S.A.

Now
42 °F

Passing clouds.


Feels Like: 42 °F
Forecast: 44 / 68 °F
Wind: No wind

Location: Raleigh-Durham International Airport

Current Time: Apr 27, 2015 at 4:04:45 AM

Latest Report: Apr 27, 2015 at 2:51 AM


Visibility: 10 mi

Pressure: 29.76 "Hg

Humidity: 92%

Dew point: 40 °F

Location of RaleighLocation

Historic Weather in Raleigh — Graph

°F

Raleigh temperature yesterday

Maximum temperature yesterday: 54 °F (at 5:51 PM)
Minimum temperature yesterday: 46 °F (at 3:51 AM)
Average temperature yesterday: 49 °F

Past Weeks' High & Low Weather Summary

 TemperatureHumidityPressure
High79 °F (Apr 18, 1:51 PM)100% (Apr 25, 5:01 PM)30.36 "Hg (Apr 25, 5:01 PM)
Low39 °F (Apr 24, 5:51 AM)21% (Apr 23, 5:51 PM)29.59 "Hg (Apr 26, 4:51 AM)
Average61 °F71%29.98 "Hg
* Reported Apr 12 2:51 AM — Apr 27 2:51 AM, Raleigh, Weather by CustomWeather, © 2015

Note: Actual official high and low records may vary slightly from our data, if they occured in-between our weather recording intervals... More about our weather records

Advertising

Raleigh weather history for previous 24 hours

 ConditionsComfort  
Time TempWeatherWind HumidityBarometerVisibility
2:51 AM
Mon, Apr 27
42 °FPassing clouds.No wind92%29.76 "Hg10 mi
1:51 AM44 °FPassing clouds.No wind93%29.78 "Hg10 mi
12:51 AM46 °FPassing clouds.No wind93%29.78 "Hg10 mi
11:51 PM
Sun, Apr 26
46 °FPassing clouds.No wind93%29.78 "Hg10 mi
10:51 PM48 °FPassing clouds.No wind93%29.78 "Hg10 mi
9:51 PM49 °FPassing clouds.No wind93%29.78 "Hg10 mi
8:51 PM50 °FPartly sunny.No wind86%29.77 "Hg10 mi
7:51 PM52 °FPartly sunny.5 mph77%29.75 "Hg10 mi
6:51 PM53 °FMore clouds than sun.5 mph74%29.73 "Hg10 mi
5:51 PM54 °FMostly cloudy.8 mph74%29.72 "Hg10 mi
4:51 PM52 °FMostly cloudy.5 mph80%29.73 "Hg10 mi
3:51 PM52 °FMostly cloudy.8 mph80%29.72 "Hg10 mi
2:51 PM51 °FOvercast.6 mph83%29.73 "Hg10 mi
1:51 PM52 °FMostly cloudy.8 mph80%29.72 "Hg10 mi
12:51 PM50 °FOvercast.9 mph86%29.72 "Hg10 mi
11:51 AM48 °FMore clouds than sun.7 mph93%29.73 "Hg10 mi
10:51 AM48 °FMostly cloudy.8 mph89%29.70 "Hg8 mi
10:04 AM48 °FMostly cloudy.9 mph94%29.69 "Hg10 mi
9:51 AM48 °FMostly cloudy.8 mph89%29.69 "Hg1 mi
8:51 AM47 °FDrizzle. Fog.8 mph93%29.68 "Hg1 mi
7:51 AM47 °FDrizzle. Fog.7 mph93%29.66 "Hg1 mi
7:01 AM46 °FFog.5 mph93%29.63 "Hg1 mi
5:51 AM46 °FFog.6 mph93%29.61 "Hg3 mi
4:51 AM46 °FFog.7 mph93%29.59 "Hg3 mi
Weather by CustomWeather, © 2015

See weather overviewHow to use our weather pages